,,,PA_Meas_PMT16A,,PR_Meas_QMR101_102,,RH_Meas_QMH101,,SR_Meas_QMS101,,TA_Meas_QMH101,,GenWind,,GenWind,
date,time,status,PA,status,PR,status,RH,status,SR,status,TA,status,DirAvg,status,SpdAvg,
2009-09-26, 00:00:04,VALID,1003.65,VALID,0,VALID,85.9012,VALID,0,VALID,26.3887,VALID,83,VALID,0.933984,
2009-09-26, 00:01:04,VALID,1003.59,VALID,0,VALID,85.6723,VALID,0,VALID,26.4277,VALID,92,VALID,0.917578,
2009-09-26, 00:02:04,VALID,1003.59,VALID,0,VALID,85.6266,VALID,0,VALID,26.4687,VALID,46,VALID,1.02656,
2009-09-26, 00:03:04,VALID,1003.56,VALID,0,VALID,85.5808,VALID,0.100563,VALID,26.4881,VALID,66,VALID,0.395312,
2009-09-26, 00:04:04,VALID,1003.56,VALID,0,VALID,85.6494,VALID,0,VALID,26.4687,VALID,43,VALID,0.248437,
2009-09-26, 00:05:04,VALID,1003.53,VALID,0,VALID,85.5655,VALID,0,VALID,26.4082,VALID,69,VALID,0.278125,
2009-09-26, 00:06:04,VALID,1003.52,VALID,0,VALID,85.7257,VALID,0,VALID,26.4082,VALID,90,VALID,0.948047,
2009-09-26, 00:07:04,VALID,1003.51,VALID,0,VALID,85.5274,VALID,0,VALID,26.4102,VALID,12,VALID,0.807031,
2009-09-26, 00:08:04,VALID,1003.49,VALID,0,VALID,85.6723,VALID,0,VALID,26.3887,VALID,26,VALID,0.370313,
2009-09-26, 00:09:04,VALID,1003.48,VALID,0,VALID,85.7334,VALID,0,VALID,26.4082,VALID,100,VALID,0.678125,
2009-09-26, 00:10:04,VALID,1003.44,VALID,0,VALID,85.6189,VALID,0,VALID,26.3907,VALID,76,VALID,0.468359,
2009-09-26, 00:11:04,VALID,1003.44,VALID,0,VALID,85.5426,VALID,0,VALID,26.3498,VALID,68,VALID,0.768359,
2009-09-26, 00:12:04,VALID,1003.44,VALID,0,VALID,85.6189,VALID,0,VALID,26.3693,VALID,90,VALID,0.376953,
2009-09-26, 00:13:04,VALID,1003.44,VALID,0,VALID,85.6418,VALID,0,VALID,26.3713,VALID,103,VALID,0.588281,
2009-09-26, 00:14:04,VALID,1003.38,VALID,0,VALID,85.5503,VALID,0,VALID,26.3108,VALID,47,VALID,0.898828,
2009-09-26, 00:15:04,VALID,1003.38,VALID,0,VALID,85.4892,VALID,0.100563,VALID,26.3303,VALID,90,VALID,1.06016,
2009-09-26, 00:16:04,VALID,1003.35,VALID,0,VALID,85.4282,VALID,0,VALID,26.3713,VALID,88,VALID,0.682031,
2009-09-26, 00:17:04,VALID,1003.33,VALID,0,VALID,85.4511,VALID,0,VALID,26.3713,VALID,94,VALID,0.554688,
2009-09-26, 00:18:04,VALID,1003.31,VALID,0,VALID,85.2527,VALID,0,VALID,26.3693,VALID,124,VALID,0.997266,
2009-09-26, 00:19:04,VALID,1003.3,VALID,0,VALID,85.062,VALID,0,VALID,26.3478,VALID,76,VALID,1.03867,
2009-09-26, 00:20:04,VALID,1003.28,VALID,0,VALID,85.0773,VALID,0,VALID,26.3693,VALID,71,VALID,0.902734,
2009-09-26, 00:21:04,VALID,1003.26,VALID,0,VALID,84.8255,VALID,0,VALID,26.3887,VALID,92,VALID,1.26914,
2009-09-26, 00:22:04,VALID,1003.22,VALID,0,VALID,84.8255,VALID,0,VALID,26.3887,VALID,90,VALID,0.654297,
2009-09-26, 00:23:04,VALID,1003.22,VALID,0,VALID,84.7569,VALID,0,VALID,26.4102,VALID,90,VALID,0.4125,
2009-09-26, 00:24:04,VALID,1003.16,VALID,0,VALID,84.8942,VALID,0,VALID,26.3693,VALID,34,VALID,0.430469,
2009-09-26, 00:25:04,VALID,1003.17,VALID,0,VALID,84.94,VALID,0.100563,VALID,26.3887,VALID,55,VALID,0.771875,
2009-09-26, 00:26:04,VALID,1003.17,VALID,0,VALID,84.7035,VALID,0,VALID,26.4102,VALID,64,VALID,1.08945,
2009-09-26, 00:27:04,VALID,1003.18,VALID,0,VALID,84.6348,VALID,0,VALID,26.4102,VALID,95,VALID,1.48867,
2009-09-26, 00:28:04,VALID,1003.17,VALID,0,VALID,84.6043,VALID,0,VALID,26.4492,VALID,108,VALID,0.677734,
2009-09-26, 00:29:04,VALID,1003.15,VALID,0,VALID,84.5433,VALID,0,VALID,26.4472,VALID,97,VALID,0.749219,
2009-09-26, 00:30:04,VALID,1003.15,VALID,0,VALID,84.6195,VALID,0,VALID,26.4297,VALID,63,VALID,0.489062,
2009-09-26, 00:31:04,VALID,1003.14,VALID,0,VALID,84.6348,VALID,0,VALID,26.4082,VALID,91,VALID,1.06914,
2009-09-26, 00:32:04,VALID,1003.14,VALID,0,VALID,84.5509,VALID,0,VALID,26.4277,VALID,61,VALID,0.447266,
2009-09-26, 00:33:04,VALID,1003.16,VALID,0,VALID,84.467,VALID,0,VALID,26.4472,VALID,80,VALID,1.57305,
2009-09-26, 00:34:04,VALID,1003.16,VALID,0,VALID,84.4212,VALID,0,VALID,26.4861,VALID,106,VALID,0.89375,
2009-09-26, 00:35:04,VALID,1003.14,VALID,0,VALID,84.5585,VALID,0,VALID,26.4881,VALID,90,VALID,0.738281,
2009-09-26, 00:36:04,VALID,1003.17,VALID,0,VALID,84.6501,VALID,0,VALID,26.4687,VALID,61,VALID,1.01484,
2009-09-26, 00:37:04,VALID,1003.14,VALID,0,VALID,84.4136,VALID,0,VALID,26.4881,VALID,96,VALID,1.04883,
2009-09-26, 00:38:04,VALID,1003.11,VALID,0,VALID,84.3525,VALID,0,VALID,26.5076,VALID,82,VALID,0.788281,
2009-09-26, 00:39:04,VALID,1003.12,VALID,0,VALID,84.2,VALID,0,VALID,26.5271,VALID,100,VALID,0.84375,
2009-09-26, 00:40:04,VALID,1003.1,VALID,0,VALID,83.9558,VALID,0,VALID,26.5661,VALID,112,VALID,1.60938,
2009-09-26, 00:41:04,VALID,1003.07,VALID,0,VALID,83.9558,VALID,0,VALID,26.5661,VALID,84,VALID,0.960547,
2009-09-26, 00:42:04,VALID,1003.04,VALID,0,VALID,84.0474,VALID,0,VALID,26.5446,VALID,103,VALID,1.23594,
2009-09-26, 00:43:04,VALID,1003.04,VALID,0,VALID,83.9101,VALID,0,VALID,26.5641,VALID,100,VALID,1.58594,
2009-09-26, 00:44:04,VALID,1002.99,VALID,0,VALID,83.8033,VALID,0,VALID,26.605,VALID,91,VALID,1.5207,
2009-09-26, 00:45:04,VALID,1003.01,VALID,0,VALID,83.7727,VALID,0,VALID,26.5835,VALID,103,VALID,1.19687,
2009-09-26, 00:46:04,VALID,1002.98,VALID,0,VALID,83.4371,VALID,0,VALID,26.6245,VALID,87,VALID,1.25586,
2009-09-26, 00:47:04,VALID,1002.98,VALID,0,VALID,83.5439,VALID,0,VALID,26.644,VALID,80,VALID,0.585938,
2009-09-26, 00:48:04,VALID,1002.99,VALID,0,VALID,83.5362,VALID,0,VALID,26.6245,VALID,129,VALID,1.0375,
2009-09-26, 00:49:04,VALID,1002.98,VALID,0,VALID,83.6583,VALID,0,VALID,26.6245,VALID,60,VALID,0.747656,
2009-09-26, 00:50:04,VALID,1002.98,VALID,0,VALID,83.7575,VALID,0,VALID,26.605,VALID,114,VALID,1.26133,
2009-09-26, 00:51:04,VALID,1002.99,VALID,0,VALID,83.8185,VALID,0,VALID,26.605,VALID,117,VALID,1.7707,
2009-09-26, 00:52:04,VALID,1002.97,VALID,0,VALID,83.7193,VALID,0,VALID,26.603,VALID,90,VALID,0.973437,
2009-09-26, 00:53:04,VALID,1002.95,VALID,0,VALID,83.5515,VALID,0,VALID,26.605,VALID,95,VALID,1.43125,
2009-09-26, 00:54:04,VALID,1002.91,VALID,0,VALID,83.5057,VALID,0,VALID,26.6225,VALID,82,VALID,1.07305,
2009-09-26, 00:55:04,VALID,1002.87,VALID,0,VALID,83.6659,VALID,0,VALID,26.603,VALID,74,VALID,1.05977,
2009-09-26, 00:56:04,VALID,1002.86,VALID,0,VALID,83.5896,VALID,0,VALID,26.6245,VALID,113,VALID,0.750391,
2009-09-26, 00:57:04,VALID,1002.81,VALID,0,VALID,83.6888,VALID,0,VALID,26.5835,VALID,93,VALID,0.71875,
2009-09-26, 00:58:04,VALID,1002.75,VALID,0,VALID,83.3989,VALID,0,VALID,26.5855,VALID,83,VALID,1.7957,
2009-09-26, 00:59:04,VALID,1002.75,VALID,0,VALID,83.2463,VALID,0,VALID,26.605,VALID,94,VALID,1.35078,
2009-09-26, 01:00:04,VALID,1002.72,VALID,0,VALID,83.1319,VALID,0,VALID,26.644,VALID,104,VALID,2.4668,
2009-09-26, 01:01:04,VALID,1002.7,VALID,0,VALID,82.9717,VALID,0,VALID,26.644,VALID,105,VALID,1.81133,
2009-09-26, 01:02:04,VALID,1002.7,VALID,0,VALID,82.8954,VALID,0,VALID,26.6614,VALID,81,VALID,1.18594,
2009-09-26, 01:03:04,VALID,1002.69,VALID,0,VALID,82.9488,VALID,0,VALID,26.6635,VALID,105,VALID,1.47539,
2009-09-26, 01:04:04,VALID,1002.67,VALID,0,VALID,82.9641,VALID,0,VALID,26.644,VALID,84,VALID,1.29922,
2009-09-26, 01:05:04,VALID,1002.68,VALID,0,VALID,82.9793,VALID,0,VALID,26.603,VALID,74,VALID,1.14141,
2009-09-26, 01:06:04,VALID,1002.65,VALID,0,VALID,82.9564,VALID,0,VALID,26.6245,VALID,112,VALID,2.21719,
2009-09-26, 01:07:04,VALID,1002.66,VALID,0,VALID,82.8039,VALID,0,VALID,26.6635,VALID,66,VALID,1.76055,
2009-09-26, 01:08:04,VALID,1002.7,VALID,0,VALID,82.7352,VALID,0,VALID,26.683,VALID,86,VALID,1.61797,
2009-09-26, 01:09:04,VALID,1002.73,VALID,0,VALID,82.7886,VALID,0,VALID,26.7024,VALID,125,VALID,1.17383,
2009-09-26, 01:10:04,VALID,1002.73,VALID,0,VALID,82.6818,VALID,0,VALID,26.683,VALID,87,VALID,1.55078,
2009-09-26, 01:11:04,VALID,1002.73,VALID,0,VALID,82.7199,VALID,0,VALID,26.6614,VALID,86,VALID,0.906641,
2009-09-26, 01:12:04,VALID,1002.74,VALID,0,VALID,82.842,VALID,0,VALID,26.683,VALID,110,VALID,1.04844,
2009-09-26, 01:13:04,VALID,1002.71,VALID,0,VALID,82.4911,VALID,0,VALID,26.683,VALID,68,VALID,2.15625,
2009-09-26, 01:14:04,VALID,1002.7,VALID,0,VALID,82.4224,VALID,0,VALID,26.7024,VALID,86,VALID,1.07227,
2009-09-26, 01:15:04,VALID,1002.68,VALID,0,VALID,82.4377,VALID,0,VALID,26.683,VALID,90,VALID,1.38516,
2009-09-26, 01:16:04,VALID,1002.66,VALID,0,VALID,82.5445,VALID,0,VALID,26.644,VALID,88,VALID,0.74375,
2009-09-26, 01:17:04,VALID,1002.67,VALID,0,VALID,82.6589,VALID,0,VALID,26.644,VALID,113,VALID,0.925781,
2009-09-26, 01:18:04,VALID,1002.64,VALID,0,VALID,82.7199,VALID,0,VALID,26.6245,VALID,68,VALID,0.725781,
2009-09-26, 01:19:04,VALID,1002.66,VALID,0,VALID,82.9946,VALID,0,VALID,26.5855,VALID,113,VALID,1.63594,
2009-09-26, 01:20:04,VALID,1002.64,VALID,0,VALID,83.3455,VALID,0,VALID,26.5661,VALID,111,VALID,0.819141,
2009-09-26, 01:21:04,VALID,1002.66,VALID,0,VALID,83.3608,VALID,0,VALID,26.5271,VALID,99,VALID,1.00352,
2009-09-26, 01:22:04,VALID,1002.62,VALID,0,VALID,83.4065,VALID,0,VALID,26.5076,VALID,105,VALID,1.0875,
2009-09-26, 01:23:04,VALID,1002.61,VALID,0,VALID,83.376,VALID,0,VALID,26.5271,VALID,62,VALID,1.35664,
2009-09-26, 01:24:04,VALID,1002.59,VALID,0,VALID,83.4294,VALID,0,VALID,26.5076,VALID,84,VALID,0.559766,
2009-09-26, 01:25:04,VALID,1002.57,VALID,0,VALID,83.5591,VALID,0,VALID,26.4687,VALID,84,VALID,0.516406,
2009-09-26, 01:26:04,VALID,1002.56,VALID,0,VALID,83.7193,VALID,0,VALID,26.4492,VALID,94,VALID,1.60312,
2009-09-26, 01:27:04,VALID,1002.57,VALID,0,VALID,83.9253,VALID,0,VALID,26.4102,VALID,83,VALID,0.584375,
2009-09-26, 01:28:04,VALID,1002.53,VALID,0,VALID,84.0397,VALID,0,VALID,26.4102,VALID,68,VALID,0.861719,
2009-09-26, 01:29:04,VALID,1002.55,VALID,0,VALID,84.1923,VALID,0,VALID,26.3907,VALID,104,VALID,0.3375,
2009-09-26, 01:30:04,VALID,1002.52,VALID,0,VALID,84.3449,VALID,0,VALID,26.3713,VALID,128,VALID,1.31602,
2009-09-26, 01:31:04,VALID,1002.51,VALID,0,VALID,84.2839,VALID,0,VALID,26.3907,VALID,115,VALID,0.813281,
2009-09-26, 01:32:04,VALID,1002.5,VALID,0,VALID,84.322,VALID,0,VALID,26.3907,VALID,54,VALID,0.966406,
2009-09-26, 01:33:04,VALID,1002.48,VALID,0,VALID,84.2381,VALID,0,VALID,26.3907,VALID,55,VALID,0.651172,
2009-09-26, 01:34:04,VALID,1002.48,VALID,0,VALID,84.2762,VALID,0,VALID,26.3498,VALID,81,VALID,0.494141,
2009-09-26, 01:35:04,VALID,1002.49,VALID,0,VALID,84.4136,VALID,0,VALID,26.3518,VALID,104,VALID,0.430078,
2009-09-26, 01:36:04,VALID,1002.49,VALID,0,VALID,84.5585,VALID,0,VALID,26.3128,VALID,104,VALID,0.360938,
2009-09-26, 01:37:04,VALID,1002.51,VALID,0,VALID,84.5814,VALID,0,VALID,26.2933,VALID,94,VALID,0.965234,
2009-09-26, 01:38:04,VALID,1002.5,VALID,0,VALID,84.5967,VALID,0,VALID,26.2933,VALID,70,VALID,0.38125,
2009-09-26, 01:39:04,VALID,1002.5,VALID,0,VALID,84.6195,VALID,0,VALID,26.2739,VALID,67,VALID,0.454297,
2009-09-26, 01:40:04,VALID,1002.5,VALID,0,VALID,84.795,VALID,0,VALID,26.2544,VALID,59,VALID,0.285156,
2009-09-26, 01:41:04,VALID,1002.49,VALID,0,VALID,84.94,VALID,0,VALID,26.2154,VALID,72,VALID,0.898828,
2009-09-26, 01:42:04,VALID,1002.51,VALID,0,VALID,85.0925,VALID,0,VALID,26.1765,VALID,85,VALID,0.511719,
2009-09-26, 01:43:04,VALID,1002.5,VALID,0,VALID,85.207,VALID,0,VALID,26.1355,VALID,62,VALID,0.216797,
2009-09-26, 01:44:04,VALID,1002.52,VALID,0,VALID,85.4511,VALID,0,VALID,26.0985,VALID,81,VALID,0.830469,
2009-09-26, 01:45:04,VALID,1002.52,VALID,0,VALID,85.596,VALID,0,VALID,26.0985,VALID,74,VALID,0.416797,
2009-09-26, 01:46:04,VALID,1002.53,VALID,0,VALID,85.7715,VALID,0,VALID,26.0791,VALID,34,VALID,0.236328,
2009-09-26, 01:47:04,VALID,1002.52,VALID,0,VALID,85.8936,VALID,0,VALID,26.0596,VALID,34,VALID,0.326172,
2009-09-26, 01:48:04,VALID,1002.54,VALID,0,VALID,86.0004,VALID,0,VALID,26.0012,VALID,46,VALID,0.269922,
2009-09-26, 01:49:04,VALID,1002.52,VALID,0,VALID,86.1758,VALID,0,VALID,25.9817,VALID,46,VALID,0.0289063,
2009-09-26, 01:50:04,VALID,1002.53,VALID,0,VALID,86.3589,VALID,0,VALID,25.9427,VALID,84,VALID,0.372656,
2009-09-26, 01:51:04,VALID,1002.55,VALID,0,VALID,86.542,VALID,0,VALID,25.9038,VALID,83,VALID,0.096875,
2009-09-26, 01:52:04,VALID,1002.56,VALID,0,VALID,86.6793,VALID,0,VALID,25.8843,VALID,83,VALID,0.0894531,
2009-09-26, 01:53:04,VALID,1002.54,VALID,0,VALID,86.8548,VALID,0,VALID,25.9232,VALID,93,VALID,0.927734,
2009-09-26, 01:54:04,VALID,1002.6,VALID,0,VALID,86.7175,VALID,0,VALID,25.9213,VALID,63,VALID,0.322656,
2009-09-26, 01:55:04,VALID,1002.59,VALID,0,VALID,86.7175,VALID,0,VALID,25.9018,VALID,93,VALID,0.346484,
2009-09-26, 01:56:04,VALID,1002.59,VALID,0,VALID,86.8167,VALID,0,VALID,25.9427,VALID,114,VALID,0.935547,
2009-09-26, 01:57:04,VALID,1002.6,VALID,0,VALID,86.7404,VALID,0,VALID,25.9622,VALID,58,VALID,0.660937,
2009-09-26, 01:58:04,VALID,1002.61,VALID,0,VALID,86.6946,VALID,0,VALID,25.9622,VALID,81,VALID,0.271094,
2009-09-26, 01:59:04,VALID,1002.63,VALID,0,VALID,86.6641,VALID,0,VALID,25.9622,VALID,53,VALID,0.408984,
2009-09-26, 02:00:04,VALID,1002.61,VALID,0,VALID,86.7099,VALID,0,VALID,25.9622,VALID,87,VALID,0.374609,
2009-09-26, 02:01:04,VALID,1002.6,VALID,0,VALID,86.7556,VALID,0,VALID,25.9427,VALID,87,VALID,0.0902344,
2009-09-26, 02:02:04,VALID,1002.6,VALID,0,VALID,86.748,VALID,0,VALID,25.9018,VALID,87,VALID,0.360547,
2009-09-26, 02:03:04,VALID,1002.64,VALID,0,VALID,86.9235,VALID,0,VALID,25.9038,VALID,87,VALID,0.263281,
2009-09-26, 02:04:04,VALID,1002.64,VALID,0,VALID,87.0837,VALID,0,VALID,25.8648,VALID,41,VALID,0.187109,
2009-09-26, 02:05:04,VALID,1002.66,VALID,0,VALID,87.221,VALID,0,VALID,25.8453,VALID,66,VALID,0.633594,
2009-09-26, 02:06:04,VALID,1002.66,VALID,0,VALID,87.3049,VALID,0,VALID,25.8064,VALID,56,VALID,0.0859375,
2009-09-26, 02:07:04,VALID,1002.7,VALID,0,VALID,87.4651,VALID,0,VALID,25.7869,VALID,56,VALID,0,
2009-09-26, 02:08:04,VALID,1002.68,VALID,0,VALID,87.4804,VALID,0,VALID,25.7265,VALID,56,VALID,0,
2009-09-26, 02:09:04,VALID,1002.69,VALID,0,VALID,87.694,VALID,0,VALID,25.6681,VALID,56,VALID,0,
2009-09-26, 02:10:04,VALID,1002.68,VALID,0,VALID,87.8313,VALID,0,VALID,25.6506,VALID,56,VALID,0,
2009-09-26, 02:11:04,VALID,1002.68,VALID,0,VALID,88.0449,VALID,0,VALID,25.5902,VALID,56,VALID,0,
2009-09-26, 02:12:04,VALID,1002.66,VALID,0,VALID,88.2356,VALID,0,VALID,25.5921,VALID,56,VALID,0,
2009-09-26, 02:13:04,VALID,1002.67,VALID,0,VALID,88.4569,VALID,0,VALID,25.5318,VALID,63,VALID,0.667578,
2009-09-26, 02:14:04,VALID,1002.7,VALID,0,VALID,88.5484,VALID,0,VALID,25.5123,VALID,65,VALID,0.725391,
2009-09-26, 02:15:04,VALID,1002.7,VALID,0,VALID,88.6018,VALID,0,VALID,25.5318,VALID,71,VALID,0.755078,
2009-09-26, 02:16:04,VALID,1002.64,VALID,0,VALID,88.5408,VALID,0,VALID,25.5532,VALID,72,VALID,0.459766,
2009-09-26, 02:17:04,VALID,1002.66,VALID,0,VALID,88.5332,VALID,0,VALID,25.5318,VALID,75,VALID,0.568359,
2009-09-26, 02:18:04,VALID,1002.63,VALID,0,VALID,88.5026,VALID,0,VALID,25.5727,VALID,90,VALID,0.604297,
2009-09-26, 02:19:04,VALID,1002.61,VALID,0,VALID,88.289,VALID,0,VALID,25.5902,VALID,81,VALID,0.805469,
2009-09-26, 02:20:04,VALID,1002.6,VALID,0,VALID,88.0525,VALID,0,VALID,25.67,VALID,50,VALID,0.467969,
2009-09-26, 02:21:04,VALID,1002.61,VALID,0,VALID,87.9686,VALID,0,VALID,25.6681,VALID,67,VALID,0.489453,
2009-09-26, 02:22:04,VALID,1002.63,VALID,0,VALID,87.8771,VALID,0,VALID,25.6486,VALID,72,VALID,0.467578,
2009-09-26, 02:23:04,VALID,1002.64,VALID,0,VALID,87.8542,VALID,0,VALID,25.6292,VALID,72,VALID,0.317969,
2009-09-26, 02:24:04,VALID,1002.59,VALID,0,VALID,87.9762,VALID,0,VALID,25.6506,VALID,71,VALID,0.422656,
2009-09-26, 02:25:04,VALID,1002.62,VALID,0,VALID,88.0068,VALID,0,VALID,25.6292,VALID,62,VALID,0.771484,
2009-09-26, 02:26:04,VALID,1002.6,VALID,0,VALID,88.0373,VALID,0,VALID,25.6292,VALID,79,VALID,0.2,
2009-09-26, 02:27:04,VALID,1002.58,VALID,0,VALID,88.0602,VALID,0,VALID,25.6097,VALID,79,VALID,0,
2009-09-26, 02:28:04,VALID,1002.58,VALID,0,VALID,88.167,VALID,0,VALID,25.5902,VALID,93,VALID,0.505469,
2009-09-26, 02:29:04,VALID,1002.57,VALID,0,VALID,88.1822,VALID,0,VALID,25.6116,VALID,94,VALID,0.04375,
2009-09-26, 02:30:04,VALID,1002.55,VALID,0,VALID,88.1899,VALID,0,VALID,25.5902,VALID,94,VALID,0,
2009-09-26, 02:31:04,VALID,1002.56,VALID,0,VALID,88.2204,VALID,0,VALID,25.5902,VALID,83,VALID,0.398047,
2009-09-26, 02:32:04,VALID,1002.56,VALID,0,VALID,88.1212,VALID,0,VALID,25.5902,VALID,83,VALID,0.427344,
2009-09-26, 02:33:04,VALID,1002.52,VALID,0,VALID,88.0831,VALID,0,VALID,25.6311,VALID,83,VALID,0.273047,
2009-09-26, 02:34:04,VALID,1002.52,VALID,0,VALID,88.1441,VALID,0,VALID,25.5902,VALID,83,VALID,0.363281,
2009-09-26, 02:35:04,VALID,1002.51,VALID,0,VALID,88.1365,VALID,0,VALID,25.5902,VALID,100,VALID,0.393359,
2009-09-26, 02:36:04,VALID,1002.48,VALID,0,VALID,88.1059,VALID,0,VALID,25.5727,VALID,100,VALID,0.411719,
2009-09-26, 02:37:04,VALID,1002.5,VALID,0,VALID,88.1517,VALID,0,VALID,25.5318,VALID,100,VALID,0.397266,
2009-09-26, 02:38:04,VALID,1002.47,VALID,0,VALID,88.289,VALID,0,VALID,25.5123,VALID,100,VALID,0.376172,
2009-09-26, 02:39:04,VALID,1002.47,VALID,0,VALID,88.4264,VALID,0,VALID,25.4539,VALID,100,VALID,0.36875,
2009-09-26, 02:40:04,VALID,1002.45,VALID,0,VALID,88.5866,VALID,0,VALID,25.3974,VALID,100,VALID,0.579687,
2009-09-26, 02:41:04,VALID,1002.44,VALID,0,VALID,88.8154,VALID,0,VALID,25.3195,VALID,100,VALID,0.440234,
2009-09-26, 02:42:04,VALID,1002.42,VALID,0,VALID,89.029,VALID,0,VALID,25.2611,VALID,100,VALID,0.489844,
2009-09-26, 02:43:04,VALID,1002.45,VALID,0,VALID,89.2732,VALID,0,VALID,25.1423,VALID,100,VALID,0.31875,
2009-09-26, 02:44:04,VALID,1002.39,VALID,0,VALID,89.6699,VALID,0,VALID,25.0858,VALID,60,VALID,0.466016,
2009-09-26, 02:45:04,VALID,1002.39,VALID,0,VALID,90.036,VALID,0,VALID,24.9885,VALID,60,VALID,0.329688,
2009-09-26, 02:46:04,VALID,1002.42,VALID,0,VALID,90.4862,VALID,0,VALID,24.8892,VALID,47,VALID,0.175781,
2009-09-26, 02:47:04,VALID,1002.42,VALID,0,VALID,90.7303,VALID,0,VALID,24.8503,VALID,42,VALID,0.468359,
2009-09-26, 02:48:04,VALID,1002.44,VALID,0,VALID,90.8218,VALID,0,VALID,24.7724,VALID,39,VALID,0.410547,
2009-09-26, 02:49:04,VALID,1002.44,VALID,0,VALID,91.1193,VALID,0,VALID,24.714,VALID,30,VALID,0.474219,
2009-09-26, 02:50:04,VALID,1002.44,VALID,0,VALID,91.249,VALID,0,VALID,24.6361,VALID,29,VALID,0.360547,
2009-09-26, 02:51:04,VALID,1002.43,VALID,0,VALID,91.4855,VALID,0,VALID,24.5972,VALID,29,VALID,0.192578,
2009-09-26, 02:52:04,VALID,1002.46,VALID,0,VALID,91.7068,VALID,0,VALID,24.5582,VALID,29,VALID,0.0242187,
2009-09-26, 02:53:04,VALID,1002.44,VALID,0,VALID,91.8899,VALID,0,VALID,24.5388,VALID,29,VALID,0.0558594,
2009-09-26, 02:54:04,VALID,1002.45,VALID,0,VALID,92.1035,VALID,0,VALID,24.5388,VALID,29,VALID,0.225,
2009-09-26, 02:55:04,VALID,1002.44,VALID,0,VALID,92.1187,VALID,0,VALID,24.5796,VALID,29,VALID,0.221094,
2009-09-26, 02:56:04,VALID,1002.46,VALID,0,VALID,92.2484,VALID,0,VALID,24.5582,VALID,29,VALID,0.144531,
2009-09-26, 02:57:04,VALID,1002.44,VALID,0,VALID,92.2332,VALID,0,VALID,24.5388,VALID,29,VALID,0.0257812,
2009-09-26, 02:58:04,VALID,1002.42,VALID,0,VALID,92.2561,VALID,0.100563,VALID,24.5388,VALID,29,VALID,0,
2009-09-26, 02:59:04,VALID,1002.44,VALID,0,VALID,92.3247,VALID,0,VALID,24.5406,VALID,29,VALID,0,
2009-09-26, 03:00:04,VALID,1002.4,VALID,0,VALID,92.3323,VALID,0,VALID,24.5406,VALID,29,VALID,0,
2009-09-26, 03:01:04,VALID,1002.41,VALID,0,VALID,92.4849,VALID,0,VALID,24.5406,VALID,29,VALID,0,
2009-09-26, 03:02:04,VALID,1002.42,VALID,0,VALID,92.5917,VALID,0,VALID,24.5193,VALID,29,VALID,0.150781,
2009-09-26, 03:03:04,VALID,1002.44,VALID,0,VALID,92.5841,VALID,0,VALID,24.5388,VALID,29,VALID,0.319922,
2009-09-26, 03:04:04,VALID,1002.43,VALID,0,VALID,92.5917,VALID,0,VALID,24.5212,VALID,29,VALID,0.283594,
2009-09-26, 03:05:04,VALID,1002.42,VALID,0,VALID,92.5383,VALID,0,VALID,24.5017,VALID,29,VALID,0.242188,
2009-09-26, 03:06:04,VALID,1002.43,VALID,0,VALID,92.6222,VALID,0,VALID,24.4609,VALID,30,VALID,0.272266,
2009-09-26, 03:07:04,VALID,1002.43,VALID,0,VALID,92.7214,VALID,0,VALID,24.4804,VALID,30,VALID,0.275781,
2009-09-26, 03:08:04,VALID,1002.42,VALID,0,VALID,92.7596,VALID,0,VALID,24.5017,VALID,30,VALID,0.253906,
2009-09-26, 03:09:04,VALID,1002.41,VALID,0,VALID,92.7824,VALID,0,VALID,24.5017,VALID,30,VALID,0.183984,
2009-09-26, 03:10:04,VALID,1002.43,VALID,0,VALID,92.8435,VALID,0,VALID,24.5017,VALID,30,VALID,0.219922,
2009-09-26, 03:11:04,VALID,1002.44,VALID,0,VALID,92.9274,VALID,0,VALID,24.5193,VALID,30,VALID,0.440234,
2009-09-26, 03:12:04,VALID,1002.43,VALID,0,VALID,92.7596,VALID,0,VALID,24.5388,VALID,31,VALID,0.351563,
2009-09-26, 03:13:04,VALID,1002.44,VALID,0,VALID,92.6299,VALID,0,VALID,24.5582,VALID,47,VALID,0.480078,
2009-09-26, 03:14:04,VALID,1002.41,VALID,0,VALID,92.4468,VALID,0,VALID,24.5601,VALID,41,VALID,0.159375,
2009-09-26, 03:15:04,VALID,1002.4,VALID,0,VALID,92.5078,VALID,0,VALID,24.5582,VALID,77,VALID,0.415234,
2009-09-26, 03:16:04,VALID,1002.41,VALID,0,VALID,92.401,VALID,0,VALID,24.5777,VALID,77,VALID,0.253125,
2009-09-26, 03:17:04,VALID,1002.4,VALID,0,VALID,92.4468,VALID,0,VALID,24.5582,VALID,77,VALID,0.264844,
2009-09-26, 03:18:04,VALID,1002.41,VALID,0,VALID,92.462,VALID,0,VALID,24.5582,VALID,77,VALID,0.0457031,
2009-09-26, 03:19:04,VALID,1002.41,VALID,0,VALID,92.5917,VALID,0,VALID,24.5972,VALID,82,VALID,0.423047,
2009-09-26, 03:20:04,VALID,1002.38,VALID,0,VALID,92.6222,VALID,0.100563,VALID,24.5972,VALID,82,VALID,0.125,
2009-09-26, 03:21:04,VALID,1002.42,VALID,0,VALID,92.4773,VALID,0,VALID,24.5972,VALID,79,VALID,0.172656,
2009-09-26, 03:22:04,VALID,1002.39,VALID,0,VALID,92.4239,VALID,0,VALID,24.5582,VALID,79,VALID,0.129688,
2009-09-26, 03:23:04,VALID,1002.38,VALID,0,VALID,92.3552,VALID,0,VALID,24.5582,VALID,79,VALID,0.0105469,
2009-09-26, 03:24:04,VALID,1002.41,VALID,0,VALID,92.3934,VALID,0,VALID,24.5796,VALID,79,VALID,0,
2009-09-26, 03:25:04,VALID,1002.4,VALID,0,VALID,92.6833,VALID,0,VALID,24.5777,VALID,82,VALID,0.41875,
2009-09-26, 03:26:04,VALID,1002.36,VALID,0,VALID,92.7062,VALID,0,VALID,24.6556,VALID,76,VALID,0.198437,
2009-09-26, 03:27:04,VALID,1002.37,VALID,0,VALID,92.6451,VALID,0,VALID,24.7159,VALID,76,VALID,0.39375,
2009-09-26, 03:28:04,VALID,1002.34,VALID,0,VALID,92.34,VALID,0,VALID,24.7743,VALID,76,VALID,0.283984,
2009-09-26, 03:29:04,VALID,1002.37,VALID,0,VALID,91.9662,VALID,0,VALID,24.7937,VALID,61,VALID,0.551172,
2009-09-26, 03:30:04,VALID,1002.34,VALID,0,VALID,91.7144,VALID,0,VALID,24.7743,VALID,58,VALID,0.296094,
2009-09-26, 03:31:04,VALID,1002.4,VALID,0,VALID,91.6076,VALID,0,VALID,24.7743,VALID,58,VALID,0.277734,
2009-09-26, 03:32:04,VALID,1002.37,VALID,0,VALID,91.4626,VALID,0,VALID,24.7353,VALID,58,VALID,0.427344,
2009-09-26, 03:33:04,VALID,1002.36,VALID,0,VALID,91.4474,VALID,0,VALID,24.7372,VALID,52,VALID,0.312891,
2009-09-26, 03:34:04,VALID,1002.37,VALID,0,VALID,91.4169,VALID,0,VALID,24.6574,VALID,52,VALID,0.266016,
2009-09-26, 03:35:04,VALID,1002.38,VALID,0,VALID,91.6305,VALID,0,VALID,24.599,VALID,52,VALID,0.449609,
2009-09-26, 03:36:04,VALID,1002.41,VALID,0,VALID,91.8975,VALID,0,VALID,24.599,VALID,52,VALID,0.325391,
2009-09-26, 03:37:04,VALID,1002.4,VALID,0,VALID,91.989,VALID,0,VALID,24.5814,VALID,52,VALID,0,
2009-09-26, 03:38:04,VALID,1002.42,VALID,0,VALID,92.0958,VALID,0,VALID,24.4998,VALID,52,VALID,0.265625,
2009-09-26, 03:39:04,VALID,1002.43,VALID,0,VALID,92.2637,VALID,0,VALID,24.5425,VALID,52,VALID,0.361328,
2009-09-26, 03:40:04,VALID,1002.46,VALID,0,VALID,92.3095,VALID,0,VALID,24.4628,VALID,52,VALID,0.0960938,
2009-09-26, 03:41:04,VALID,1002.43,VALID,0,VALID,92.5002,VALID,0,VALID,24.4822,VALID,52,VALID,0.242578,
2009-09-26, 03:42:04,VALID,1002.47,VALID,0,VALID,92.7367,VALID,0,VALID,24.5212,VALID,78,VALID,0.579297,
2009-09-26, 03:43:04,VALID,1002.48,VALID,0,VALID,93.0266,VALID,0,VALID,24.638,VALID,72,VALID,0.763672,
2009-09-26, 03:44:04,VALID,1002.49,VALID,0,VALID,92.6528,VALID,0,VALID,24.6964,VALID,49,VALID,0.0941406,
2009-09-26, 03:45:04,VALID,1002.49,VALID,0,VALID,92.4163,VALID,0,VALID,24.7177,VALID,49,VALID,0.552344,
2009-09-26, 03:46:04,VALID,1002.5,VALID,0,VALID,92.3095,VALID,0,VALID,24.714,VALID,84,VALID,0.401563,
2009-09-26, 03:47:04,VALID,1002.53,VALID,0,VALID,92.0958,VALID,0,VALID,24.7548,VALID,85,VALID,0.241406,